Find Starlink 37704

NORAD ID: 100501 Int'l Des: 2026-196 Owner: SPXS Country: US Constellation: starlink operational

Current View

Loading 3D Globe...

About Starlink 37704

Starlink 37704 (NORAD 100501) is a starlink constellation satellite launched Aug 25, 2026 by SPXS of US. with a mass of 575.00 kg.

Upcoming Passes

Passes for default location (London). Set your location on the main map for personalized predictions.

Altitude History

Loading altitude history...

Two-Line Element Set

1 A0501U 26196AE 26263.92673407 -.00457235 00000-0 -78065-2 0 9993
2 A0501 53.1594 240.2935 0001439 108.9593 251.1573 15.52348189 5412
Epoch: Sep 20, 2026 • Age: 12 hours

Current Status

Altitude 416.7 km
Apogee / Perigee N/A
Velocity 7.66 km/s
Sub-Earth Point -19.39°S, 76.17°W
Launch Date Aug 25, 2026
Age 27 days
Type internet

Technical Details

Classification Payload
Mass 575.00 kg
Dry Mass 530.00 kg
Length 0.30 m
Span 29.00 m
Shape ? Box + pan
Manufacturer SPXS
Bus Type Starlink V2MO
Phase Status In Orbit
Owner/State SPXS/US

Most Searched